[[{"header":{"parameterUnit":"m.s-1","parameterCategory":1,"la1":30.2991,"la2":30.254,"lo1":-89.0895,"lo2":-89.0444,"dy":0.0017,"dx":0.0017,"nx":28,"ny":28,"refTime":"2023-07-28T21:00:00:Z","depth":0,"parameterNumber":2,"parameterNumberName":"U-component_of_WINDS"},"data":[0,0,0,0,0,0,0,0,0,0,0,0,0,0,0,0,0,0,0,0,0,0,0,0,0,0,0,0,0,0,0,0,0,0,0,0,0,0,0,0,0,0,0,0,0,0,0,0,0,0,0,0,0,0,0,0,0,0,3.0866,3.0866,0,3.0895,3.0895,3.0895,3.0794,3.0791,3.0788,3.0785,3.0817,3.0821,3.0824,0,0,0,0,0,0,0,0,0,0,0,0,0,3.0724,3.0727,3.0866,3.0866,3.0866,3.0895,3.0895,3.0895,3.0795,3.0791,3.0787,3.0784,3.0816,3.082,3.0825,0,0,0,0,0,0,0,0,0,0,0,0,0,3.0772,3.0728,3.0866,3.0819,3.0816,3.0894,3.0895,3.0895,3.0795,3.0791,3.0786,3.0782,3.0814,3.082,3.0825,3.0951,0,0,3.0842,3.0845,0,0,0,0,0,0,0,0,3.077,3.0778,3.0826,3.0823,3.0819,3.0836,3.0856,3.0914,3.0796,3.0803,3.0785,3.078,3.0827,3.0831,3.0847,3.0952,3.0954,3.0843,3.0846,3.0848,3.085,0,0,0,0,0,0,0,3.0767,3.0776,3.0877,3.0827,3.0822,3.0797,3.0799,3.0867,3.0841,3.0802,3.0795,3.08,3.0824,3.0842,3.0847,3.0954,3.0842,3.0847,3.0851,3.0853,3.116,3.1165,0,0,0,0,0,0,3.0769,3.0774,3.0876,3.0878,3.0782,3.0804,3.0806,3.0835,3.0839,3.0836,3.0803,3.0795,3.0835,3.0841,3.0848,3.0992,3.0848,3.0854,3.0857,3.1156,3.1162,3.1167,0,0,0,0,0,0,3.0766,3.0779,3.0875,3.0824,3.0834,3.0811,3.0845,3.0838,3.0855,3.084,3.0835,3.0826,3.0831,3.084,3.0925,3.0992,3.0856,3.0861,3.115,3.1157,3.1164,3.1284,0,0,0,0,0,0,3.0763,3.0779,3.0826,3.0826,3.0837,3.0952,3.0849,3.0842,3.0865,3.0854,3.086,3.0857,3.0828,3.0917,3.093,3.0997,3.0865,3.1144,3.1153,3.1162,3.1274,3.1295,3.1312,0,0,0,0,0,3.0758,3.086,3.0829,3.0842,3.0896,3.0956,3.0963,3.0927,3.0871,3.0918,3.0908,3.0857,3.0983,3.0927,3.0941,3.101,3.1139,3.1151,3.1161,3.1266,3.1291,3.1312,0,0,0,0,0,0,3.0871,3.0859,3.0825,3.093,3.0945,3.0939,3.0998,3.0955,3.0987,3.0975,3.093,3.0933,3.1025,3.1027,3.0964,3.113,3.1051,3.1066,3.1126,3.115,3.1168,3.1166,3.087,0,0,0,0,0,3.0908,3.0957,3.0945,3.1039,3.1047,3.1022,3.1047,3.1017,3.1031,3.1037,3.1033,3.1049,3.1092,3.1121,3.116,3.1274,3.1273,3.1329,3.1348,3.1364,3.1376,3.1434,3.1458,3.1203,3.1203,3.1202,0,0,3.0985,3.0985,3.1019,3.1061,3.1069,3.1121,3.1028,3.1087,3.1125,3.1046,3.1125,3.1124,3.1138,3.1237,3.1281,3.1241,3.1446,3.1378,3.139,3.1394,3.1447,3.1472,3.1493,3.121,3.1209,3.1207,0,0,3.1151,3.1157,3.1234,3.1244,3.1256,3.1238,3.1256,3.1257,3.1252,3.133,3.1272,3.1316,3.1392,3.1403,3.1419,3.1588,3.1541,3.1602,3.1701,3.1758,3.1778,3.1796,3.1853,3.1875,3.1615,3.1615,3.1615,0,3.1246,3.1321,3.128,3.1342,3.1361,3.1292,3.1369,3.138,3.1406,3.142,3.1375,3.1466,3.1472,3.1571,3.1612,3.1628,3.1647,3.16,3.1778,3.1796,3.1811,3.1866,3.1888,3.1622,3.1621,3.1621,3.162,0,3.1435,3.1488,3.1549,3.1573,3.1599,3.1669,3.1638,3.167,3.1638,3.1625,3.1704,3.1708,3.1745,3.1767,3.1738,3.1862,3.1836,3.1786,3.1705,3.1843,3.1894,3.1914,3.1632,3.163,3.1628,3.1626,0,0,3.1674,3.1672,3.1695,3.1704,3.1711,3.1751,3.1818,3.1852,3.1879,3.1899,3.1952,3.2016,3.1969,3.1987,3.1958,3.2008,3.2138,3.1951,3.1951,3.1984,3.2273,3.2309,3.2334,3.2108,3.2112,3.2115,3.227,0,3.1835,3.1946,3.191,3.2023,3.207,3.2004,3.2061,3.2072,3.206,3.2099,3.2087,3.2132,3.2067,3.2077,3.2124,3.2113,3.2195,3.2101,3.2156,3.2158,3.2152,3.2361,3.24,3.2547,3.229,3.2294,3.2296,0,3.2039,3.2063,3.2181,3.2177,3.2196,3.2248,3.2275,3.2313,3.2323,3.2311,3.2331,3.2291,3.2354,3.2275,3.2361,3.2298,3.2318,3.2316,3.2321,3.2323,3.2234,3.2366,3.2593,3.2614,3.2327,3.2325,3.2322,0,3.2198,3.2261,3.2338,3.2348,3.2347,3.2385,3.2386,3.2392,3.2414,3.2439,3.2452,3.2485,3.2502,3.2528,3.2497,3.2443,3.2588,3.2506,3.2578,3.2579,3.2611,3.2609,3.2842,3.2628,3.2627,3.2627,3.2627,0,3.2381,3.2454,3.2409,3.2457,3.2536,3.2494,3.2575,3.2569,3.2574,3.2619,3.2564,3.2608,3.2566,3.2605,3.2582,3.2655,3.2665,3.2656,3.2648,3.266,3.266,3.2671,3.2659,3.2633,3.2632,3.263,3.2629,0,3.2572,3.2545,3.2624,3.2616,3.2615,3.2674,3.2667,3.271,3.2694,3.2752,3.2763,3.2738,3.2781,3.2754,3.2798,3.2782,3.2878,3.2857,3.2874,3.2867,3.294,3.2933,3.3187,3.3217,3.2986,3.2988,3.299,0,3.2689,3.2744,3.274,3.2765,3.277,3.2812,3.2833,3.2794,3.2819,3.2833,3.2874,3.2912,3.294,3.3012,3.2999,3.3032,3.301,3.3097,3.3015,3.3024,3.3009,3.3005,3.3009,3.3113,3.3116,3.3118,3.312,0,3.29,3.2883,3.2915,3.2943,3.297,3.299,3.3006,3.303,3.299,3.3021,3.3063,3.3085,3.3128,3.3166,3.3193,3.3195,3.3151,3.3146,3.3164,3.3175,3.3181,3.3176,3.2916,3.314,3.3138,3.3136,3.3135,3.3135,3.3056,3.31,3.3103,3.3141,3.3148,3.3164,3.3203,3.3191,3.3225,3.3256,3.3231,3.3281,3.3288,3.332,3.3327,3.3365,3.333,3.3357,3.3363,3.337,3.3379,3.3176,3.337,3.337,3.3369,3.3368,3.3368,0,3.3261,3.326,3.3295,3.3317,3.3346,3.3301,3.3315,3.3343,3.3387,3.3397,3.3425,3.3472,3.3508,3.3497,3.3529,3.3562,3.3542,3.3571,3.3567,3.3568,3.341,3.3389,3.3586,3.3586,3.3586,3.3586,3.3586,3.3586,3.3372,3.3443,3.3426,3.35,3.3498,3.3545,3.3557,3.357,3.3577,3.3632,3.3661,3.3653,3.3654,3.3685,3.3715,3.3711,3.3724,3.3761,3.3749,3.3601,3.3579,3.3559,3.3539,3.3764,3.3765,3.3903,3.3905,3.3906]},{"header":{"parameterUnit":"m.s-1","parameterCategory":1,"la1":30.2991,"la2":30.254,"lo1":-89.0895,"lo2":-89.0444,"dy":0.0017,"dx":0.0017,"nx":28,"ny":28,"refTime":"2023-07-28T21:00:00:Z","depth":0,"parameterNumber":3,"parameterNumberName":"V-component_of_WINDS"},"data":[0,0,0,0,0,0,0,0,0,0,0,0,0,0,0,0,0,0,0,0,0,0,0,0,0,0,0,0,0,0,0,0,0,0,0,0,0,0,0,0,0,0,0,0,0,0,0,0,0,0,0,0,0,0,0,0,0,0,0.7449,0.7449,0,0.7511,0.7511,0.7512,0.7513,0.7513,0.7512,0.7511,0.7575,0.7578,0.758,0,0,0,0,0,0,0,0,0,0,0,0,0,0.733,0.7333,0.7449,0.7449,0.745,0.7511,0.7511,0.7512,0.7514,0.7513,0.7512,0.7511,0.7575,0.7578,0.758,0,0,0,0,0,0,0,0,0,0,0,0,0,0.7386,0.7333,0.7448,0.7458,0.746,0.751,0.7511,0.7512,0.7514,0.7513,0.7512,0.751,0.7574,0.7577,0.7581,0.7626,0,0,0.7592,0.7594,0,0,0,0,0,0,0,0,0.7383,0.739,0.7456,0.7457,0.7459,0.7503,0.7493,0.7551,0.7514,0.7493,0.7511,0.751,0.7552,0.7558,0.7572,0.7629,0.7632,0.7592,0.7595,0.7596,0.7597,0,0,0,0,0,0,0,0.7379,0.7388,0.7473,0.7457,0.7459,0.7459,0.7466,0.7504,0.7529,0.7495,0.7495,0.7503,0.7553,0.7568,0.7573,0.7633,0.7592,0.7595,0.7598,0.7599,0.773,0.7731,0,0,0,0,0,0,0.7373,0.7385,0.7471,0.7475,0.7417,0.7462,0.747,0.749,0.7528,0.7533,0.7503,0.7502,0.7563,0.7569,0.7576,0.7631,0.7596,0.7599,0.7602,0.7728,0.773,0.7731,0,0,0,0,0,0,0.7371,0.7381,0.7469,0.743,0.7441,0.7465,0.7489,0.7492,0.7507,0.7535,0.7539,0.7515,0.7562,0.7571,0.7613,0.7633,0.7601,0.7604,0.7727,0.7729,0.7731,0.7741,0,0,0,0,0,0,0.7367,0.738,0.7398,0.743,0.7443,0.7506,0.749,0.7494,0.7514,0.7513,0.7546,0.7551,0.7562,0.7608,0.7617,0.7637,0.7607,0.7725,0.7728,0.773,0.7739,0.7743,0.7747,0,0,0,0,0,0.7363,0.7399,0.7399,0.7409,0.7466,0.7507,0.7514,0.7526,0.7515,0.7533,0.755,0.755,0.7629,0.7612,0.7623,0.7644,0.7724,0.7727,0.773,0.7738,0.7743,0.7747,0,0,0,0,0,0,0.7369,0.7404,0.7404,0.7451,0.7476,0.7507,0.753,0.7531,0.756,0.7558,0.7572,0.7579,0.7621,0.7637,0.7618,0.7689,0.7675,0.768,0.7678,0.7683,0.7686,0.7682,0.761,0,0,0,0,0,0.7376,0.7406,0.7435,0.7474,0.7486,0.7506,0.7524,0.7531,0.7557,0.7568,0.7588,0.7614,0.7644,0.7664,0.7694,0.7741,0.7748,0.7761,0.7765,0.7768,0.7772,0.7797,0.7803,0.7741,0.7741,0.7741,0,0,0.739,0.7413,0.7431,0.7475,0.7495,0.7526,0.7515,0.7548,0.7571,0.7573,0.7614,0.763,0.7659,0.7704,0.7725,0.7719,0.7791,0.7772,0.7774,0.7776,0.78,0.7806,0.7811,0.7743,0.7742,0.7742,0,0,0.7432,0.7452,0.7487,0.7507,0.7537,0.7549,0.7557,0.7588,0.7598,0.764,0.7642,0.7669,0.7722,0.7742,0.7759,0.7807,0.7807,0.7816,0.7836,0.786,0.7865,0.7869,0.7885,0.7891,0.782,0.7821,0.7821,0,0.7446,0.7493,0.7504,0.7537,0.7556,0.7559,0.7593,0.7612,0.765,0.7663,0.7655,0.772,0.774,0.7789,0.7801,0.7815,0.7824,0.7813,0.7863,0.7868,0.7872,0.7888,0.7894,0.7821,0.7821,0.7821,0.7821,0,0.7508,0.754,0.7564,0.76,0.7622,0.7655,0.7671,0.7692,0.7696,0.771,0.7751,0.7775,0.7809,0.7821,0.7827,0.7871,0.7865,0.786,0.7846,0.7879,0.7893,0.7899,0.7823,0.7822,0.7822,0.7822,0,0,0.7557,0.7597,0.7606,0.7622,0.7654,0.7679,0.7712,0.7745,0.7762,0.7788,0.7816,0.7859,0.7854,0.7874,0.7881,0.7902,0.7937,0.7894,0.7895,0.7901,0.7986,0.7989,0.7996,0.7937,0.7938,0.7939,0.7983,0,0.7601,0.766,0.7671,0.7722,0.7751,0.7753,0.7782,0.7804,0.7817,0.7844,0.7858,0.7888,0.788,0.7891,0.7912,0.7928,0.7954,0.7925,0.7962,0.7964,0.7955,0.8004,0.8008,0.8048,0.7989,0.799,0.7991,0,0.7662,0.7689,0.7743,0.777,0.7782,0.7808,0.7838,0.7863,0.7889,0.7897,0.7917,0.7922,0.7956,0.794,0.7986,0.7966,0.7982,0.7991,0.7993,0.7997,0.7979,0.8009,0.8062,0.8067,0.8,0.7999,0.7999,0,0.7691,0.774,0.7779,0.7792,0.7825,0.7843,0.7857,0.7882,0.79,0.7926,0.7938,0.7968,0.7985,0.8007,0.8019,0.8007,0.8064,0.805,0.8071,0.8071,0.8083,0.8082,0.8139,0.8094,0.8094,0.8094,0.8094,0,0.774,0.7773,0.7792,0.7815,0.7851,0.7863,0.7898,0.7913,0.7934,0.796,0.7963,0.7988,0.8002,0.8028,0.8038,0.8074,0.8082,0.8088,0.809,0.8088,0.8087,0.8098,0.8096,0.8095,0.8095,0.8095,0.8094,0,0.7778,0.7793,0.7834,0.7862,0.7869,0.7895,0.7918,0.794,0.7953,0.7985,0.7994,0.8013,0.8044,0.8058,0.8096,0.8102,0.8143,0.8144,0.8134,0.8135,0.8156,0.8153,0.8221,0.8231,0.818,0.818,0.8181,0,0.7809,0.7834,0.7863,0.7881,0.7895,0.7924,0.7942,0.7954,0.7973,0.8003,0.8021,0.8052,0.8077,0.8126,0.8143,0.8172,0.8173,0.8195,0.8178,0.8174,0.8173,0.8171,0.8173,0.8198,0.8199,0.8199,0.8199,0,0.786,0.7866,0.7892,0.7921,0.7943,0.7966,0.7989,0.8003,0.8018,0.8039,0.807,0.8089,0.8127,0.8158,0.8187,0.8202,0.8203,0.8204,0.8211,0.8208,0.8202,0.8205,0.8142,0.8203,0.8203,0.8202,0.8202,0.8202,0.7895,0.7917,0.7941,0.797,0.7988,0.8009,0.8031,0.8045,0.8071,0.8103,0.8108,0.8141,0.8164,0.8204,0.822,0.8245,0.824,0.825,0.8252,0.8254,0.8255,0.8198,0.8251,0.8251,0.8251,0.8251,0.8251,0,0.7946,0.7961,0.7988,0.8019,0.8042,0.804,0.8065,0.8084,0.8112,0.8134,0.8158,0.8193,0.8222,0.8241,0.827,0.8287,0.8288,0.8294,0.8292,0.8296,0.8258,0.8249,0.8292,0.8292,0.8292,0.8292,0.8292,0.8292,0.7976,0.8012,0.802,0.8065,0.808,0.8112,0.8126,0.8144,0.8162,0.82,0.8224,0.8236,0.8256,0.8286,0.8312,0.8317,0.8327,0.8334,0.8338,0.8303,0.8298,0.8294,0.8286,0.8336,0.8336,0.8373,0.8374,0.8374]}]]